Location: *
(55.6049°S, 142.1985°W)
Time: 14:20:56
(UTC+00:00)

Cosmos 2297 Rocket - Pass Details

Date: 12 May 2021
Orbit: 838 x 845 km, 71.0° (Epoch: 17 June)

Event Time Altitude Azimuth Distance (km) Brightness Sun altitude
Exits shadow 14:54:17 20° 315° (NW) 1,881 3.6 -19.3°
Maximum altitude 14:58:21 73° 233° (SW) 898 2.1 -18.8°
Drops below altitude 10° 15:04:06 10° 147° (SSE) 2,497 5.0 -18.0°
Sets 15:06:35 0° 145° (SE) 3,436 5.8 -17.6°
